Hourly Data Report for November 05, 2017

All times are specified in Local Standard Time (LST). Add 1 hour to adjust for Daylight Saving Time where and when it is observed.

SUDBURY A
ONTARIO

46°37'32.000" N
80°47'52.000" W
348.40 m
6068153
71730
YSB

Download Data

Hourly Data (November 2017)
Hourly Data Report for November 5, 2017
Temp Definition
°C
Dew Point Temp Definition
°C
Rel Hum Definition
%
Wind Dir Definition
10's deg

Wind Spd Definition
km/h
Visibility Definition
km
Stn Press Definition
kPa
Hmdx Definition


Wind Chill Definition


Weather Definition


TIME
00:00 Legend Double Dagger -0.3 -1.3 93 8 19 24.1 97.63   -5 LegendNANA
01:00 Legend Double Dagger -0.3 -1.4 92 10 23 24.1 97.51   -6 Cloudy
02:00 Legend Double Dagger -0.3 -1.2 93 10 21 19.3 97.37   -6 Freezing Rain
03:00 Legend Double Dagger -0.2 -0.9 95 11 18 8.1 97.29   -5 Freezing Drizzle,Fog
04:00 Legend Double Dagger 0.0 -0.6 96 12 21 4.8 97.15   -5 Freezing Drizzle,Fog
05:00 Legend Double Dagger 0.2 -0.2 97 13 18 8.1 97.03     Drizzle,Fog
06:00 Legend Double Dagger 0.7 0.4 97 13 17 2.0 96.91     Drizzle,Fog
07:00 Legend Double Dagger 1.2 0.9 98 15 14 1.2 96.88     Drizzle,Fog
08:00 Legend Double Dagger 1.7 1.4 98 13 21 0.6 96.76     Drizzle,Fog
09:00 Legend Double Dagger 2.4 2.1 98 14 22 0.8 96.67     Drizzle,Fog
10:00 Legend Double Dagger 3.3 3.1 98 16 16 0.8 96.63     Drizzle,Fog
11:00 Legend Double Dagger 4.1 3.9 99 15 17 0.2 96.54     Drizzle,Fog
12:00 Legend Double Dagger 5.2 5.0 99 16 19 0.2 96.44     Drizzle,Fog
13:00 Legend Double Dagger 6.4 6.2 99 18 18 0.2 96.37     Drizzle,Fog
14:00 Legend Double Dagger 7.2 7.0 99 18 14 0.2 96.26     Drizzle,Fog
15:00 Legend Double Dagger 8.1 8.0 99 19 18 0.8 96.27     Drizzle,Fog
16:00 Legend Double Dagger 8.3 8.2 99 22 17 4.8 96.25     Fog
17:00 Legend Double Dagger 8.3 8.2 99 21 11 9.7 96.23     Fog
18:00 Legend Double Dagger 8.1 7.9 99 21 6 3.2 96.22     Drizzle,Fog
19:00 Legend Double Dagger 8.1 8.0 99 26 3 1.6 96.24     Drizzle,Fog
20:00 Legend Double Dagger 8.0 7.8 99 25 8 1.6 96.28     Drizzle,Fog
21:00 Legend Double Dagger 7.9 7.8 99 26 10 16.1 96.30     Drizzle,Fog
22:00 Legend Double Dagger 5.8 5.2 96 31 22 9.7 96.41     Drizzle,Fog
23:00 Legend Double Dagger 4.8 3.5 92 31 20 19.3 96.49     LegendNANA

Notes on Data Quality.

Legend

  • E = Estimated
  • M = Missing
  • NA = Not Available
  • ‡ = Partner data that is not subject to review by the National Climate Archives
Date modified: